Location: Unspecified
(0.0000°N, 0.0000°E)
Time: 02:27:51
(UTC+00:00)

Explorer 11/Cluster Stage 4 - Visible Passes

Search period start: 03 December 2016 00:00
Search period end: 13 December 2016 00:00
Orbit: 467 x 1264 km, 28.8° (Epoch: 01 December)

Date Brightness Start Highest point End Pass type
(mag) Time Alt. Az. Time Alt. Az. Time Alt. Az.
03 Dec 8.9 03:24:37 10° S 03:24:37 10° S 03:24:47 10° S visible
11 Dec 8.8 18:37:42 10° N 18:39:21 11° NNE 18:40:57 10° NNE visible
12 Dec 8.6 18:26:15 10° N 18:29:39 14° NNE 18:32:47 10° NE visible
12 Dec 8.7 20:13:29 10° NW 20:15:18 18° NW 20:15:18 18° NW visible
